Content
SEND FEEDBACK

Daily
Averages
Monthly
Summary
United States of America

ARCATA, CALIFORNIA


Home > North America > United States > California
Elevation: 217 feet     Latitude: 40 58N     Longitude: 124 06W

WEATHER
 
SELECT A DAY
Number of Records: 240,313;   Date Range: 1/1/95 - 8/17/14
 
SHARE

PRINT THIS DATA

[ ← Previous Day ]
WEATHER ALMANAC - OCTOBER 12, 2013
[ Next Day → ]
[ °C ]   °F
Weather ElementAverageHighLow
Temperature48.5 °F55 °F (12:53 pm)42.1 °F (1:53 am)
Dewpoint44.1 °F46.9 °F (10:53 am)39.9 °F (1:53 am)
Humidity85.2 %96 % (11:53 pm)74 % (12:53 pm)
Barometer30.09 in30.14 in (1:53 am)30.05 in (5:53 pm)
Wind Speed3.1 mph11.5 mph (3:53 pm)
Weather ElementAverage
Visibility9.6 mi
Wind DirectionESE (115.7 °)

Weather ElementTotal
Precipitation0.01 in
Heating Degree Days16.5 (Base 65)
Averaged from 28 records on October 12, 2013
WEATHER CONDITIONS BREAKOUT
WIND DIRECTION BREAKOUT
WEATHER BY HOUR - OCTOBER 12, 2013
[ °C ]   °F
Local TimeTemperatureDewpointHumidityBarometerVisibilityWind DirectionWind SpeedGust SpeedPrecipitationEventsConditions
12:53 AM43.0 °F41.0 °F93 %30.13 in10.0 miEast (90°)3.5 mph0.01 inOvercast
1:53 AM42.1 °F39.9 °F92 %30.14 in10.0 miEast (100°)3.5 mphOvercast
2:53 AM44.1 °F42.1 °F93 %30.12 in9.0 miCalmOvercast
3:53 AM45.0 °F43.0 °F93 %30.12 in10.0 miCalmOvercast
4:53 AM44.1 °F42.1 °F93 %30.11 in10.0 miCalmOvercast
5:53 AM45.0 °F43.0 °F93 %30.11 in10.0 miCalmOvercast
6:34 AM44.6 °F42.8 °F93 %30.08 in10.0 miEast (100°)4.6 mphScattered Clouds
6:53 AM44.1 °F42.1 °F93 %30.10 in10.0 miEast (90°)3.5 mphClear
7:53 AM43.0 °F41.0 °F93 %30.10 in9.0 miCalmClear
8:53 AM48.9 °F45.0 °F86 %30.10 in10.0 miESE (120°)3.5 mphClear
9:53 AM53.1 °F46.0 °F77 %30.11 in10.0 miCalmClear
10:09 AM51.8 °F44.6 °F76 %30.08 in10.0 miCalmMostly Cloudy
10:40 AM53.6 °F46.4 °F77 %30.08 in8.0 miNorthMostly Cloudy
10:53 AM54.0 °F46.9 °F77 %30.10 in10.0 miNorthMostly Cloudy
11:50 AM53.6 °F46.4 °F77 %30.08 in10.0 miNW (310°)3.5 mphPartly Cloudy
11:53 AM54.0 °F46.9 °F77 %30.10 in10.0 miNW (320°)3.5 mphPartly Cloudy
12:53 PM55.0 °F46.9 °F74 %30.09 in10.0 miWest (280°)4.6 mphClear
1:53 PM54.0 °F46.9 °F77 %30.07 in10.0 miNW (320°)6.9 mphMostly Cloudy
2:53 PM54.0 °F46.0 °F75 %30.06 in10.0 miNW (310°)6.9 mphOvercast
3:53 PM55.0 °F46.9 °F74 %30.07 in10.0 miNNW (330°)11.5 mphOvercast
4:53 PM52.0 °F46.9 °F83 %30.06 in10.0 miNNW (330°)8.1 mph0.00 inOvercast
5:53 PM52.0 °F46.0 °F80 %30.05 in10.0 miNNW (330°)5.8 mphMostly Cloudy
6:53 PM50.0 °F46.0 °F86 %30.05 in9.0 miNE (40°)3.5 mphPartly Cloudy
7:53 PM48.0 °F44.1 °F86 %30.06 in10.0 miENE (60°)3.5 mphClear
8:53 PM45.0 °F42.1 °F90 %30.06 in10.0 miCalmClear
9:53 PM44.1 °F42.1 °F93 %30.07 in10.0 miESE (110°)3.5 mphClear
10:53 PM44.1 °F41.0 °F89 %30.07 in7.0 miCalmClear
11:53 PM42.1 °F41.0 °F96 %30.07 in8.0 miCalmClear
Hourly data recorded from KACV, located miles away from Arcata, California







STORIES FROM OUR PARTNERS